[[{"header":{"parameterUnit":"m.s-1","parameterCategory":1,"la1":30.2991,"la2":30.254,"lo1":-89.0895,"lo2":-89.0444,"dy":0.0017,"dx":0.0017,"nx":28,"ny":28,"refTime":"2025-04-21T21:00:00:Z","depth":0,"parameterNumber":2,"parameterNumberName":"U-component_of_WINDS"},"data":[0,0,0,0,0,0,0,0,0,0,0,0,0,0,0,0,0,0,0,0,0,0,0,0,0,0,0,0,0,0,0,0,0,0,0,0,0,0,0,0,0,0,0,0,0,0,0,0,0,0,0,0,0,0,0,0,0,0,-0.9269,-0.927,0,-0.9399,-0.94,-0.9402,-0.947,-0.9471,-0.9471,-0.9471,-0.9607,-0.961,-0.9613,0,0,0,0,0,0,0,0,0,0,0,0,0,-0.9083,-0.9086,-0.9269,-0.927,-0.9272,-0.9398,-0.94,-0.9402,-0.947,-0.9471,-0.9471,-0.9471,-0.9605,-0.961,-0.9614,0,0,0,0,0,0,0,0,0,0,0,0,0,-0.9183,-0.9087,-0.9268,-0.9321,-0.9327,-0.9398,-0.94,-0.9402,-0.947,-0.9471,-0.9471,-0.9471,-0.9604,-0.9609,-0.9614,-0.9643,0,0,-0.963,-0.9633,0,0,0,0,0,0,0,0,-0.9178,-0.919,-0.9312,-0.9318,-0.9325,-0.9418,-0.9385,-0.9483,-0.947,-0.9416,-0.9471,-0.9471,-0.9544,-0.9554,-0.9578,-0.965,-0.9655,-0.9631,-0.9634,-0.9636,-0.9638,0,0,0,0,0,0,0,-0.9171,-0.9185,-0.932,-0.9314,-0.9321,-0.934,-0.9354,-0.9404,-0.9478,-0.9421,-0.9426,-0.944,-0.9548,-0.9573,-0.9582,-0.9657,-0.9631,-0.9635,-0.9639,-0.9641,-0.9761,-0.9761,0,0,0,0,0,0,-0.9155,-0.9179,-0.9316,-0.9324,-0.925,-0.9343,-0.9359,-0.9388,-0.9477,-0.9491,-0.944,-0.9443,-0.9564,-0.9576,-0.9587,-0.9628,-0.9636,-0.9641,-0.9644,-0.9761,-0.9761,-0.9761,0,0,0,0,0,0,-0.915,-0.9166,-0.9311,-0.9253,-0.9273,-0.9346,-0.9378,-0.9391,-0.9416,-0.9492,-0.9506,-0.9452,-0.9565,-0.958,-0.9629,-0.9633,-0.9644,-0.9648,-0.976,-0.9761,-0.9761,-0.9708,0,0,0,0,0,0,-0.9145,-0.9164,-0.9175,-0.9253,-0.9275,-0.9349,-0.9378,-0.9393,-0.9425,-0.943,-0.9507,-0.952,-0.9566,-0.9621,-0.9634,-0.9641,-0.9652,-0.976,-0.976,-0.9761,-0.971,-0.9706,-0.9703,0,0,0,0,0,-0.9138,-0.9156,-0.9175,-0.9192,-0.929,-0.9349,-0.9363,-0.9414,-0.9425,-0.9437,-0.9486,-0.9517,-0.963,-0.9625,-0.9641,-0.9649,-0.976,-0.976,-0.9761,-0.9711,-0.9707,-0.9703,0,0,0,0,0,0,-0.9078,-0.9167,-0.919,-0.9233,-0.9283,-0.9361,-0.9378,-0.9408,-0.9457,-0.946,-0.9523,-0.954,-0.9583,-0.9621,-0.9614,-0.9682,-0.9699,-0.9702,-0.9656,-0.9653,-0.9649,-0.964,-0.9657,0,0,0,0,0,-0.9069,-0.9109,-0.9185,-0.9216,-0.9239,-0.9304,-0.9332,-0.9367,-0.9422,-0.9444,-0.9496,-0.9549,-0.9597,-0.9627,-0.9675,-0.9716,-0.9734,-0.9729,-0.9726,-0.9723,-0.9725,-0.9751,-0.975,-0.9761,-0.9761,-0.9761,0,0,-0.9053,-0.9106,-0.9127,-0.9205,-0.9248,-0.9288,-0.9321,-0.9363,-0.9394,-0.9451,-0.95,-0.954,-0.9604,-0.9649,-0.9672,-0.9682,-0.9726,-0.9723,-0.972,-0.9724,-0.9751,-0.9749,-0.9748,-0.9761,-0.9761,-0.9761,0,0,-0.9043,-0.9087,-0.9118,-0.916,-0.9225,-0.9268,-0.9275,-0.9348,-0.9377,-0.9428,-0.9471,-0.951,-0.959,-0.9634,-0.9666,-0.9674,-0.9705,-0.9688,-0.9671,-0.9695,-0.9694,-0.9694,-0.9697,-0.9698,-0.969,-0.9689,-0.9689,0,-0.9014,-0.9076,-0.913,-0.9169,-0.9202,-0.9255,-0.9287,-0.9326,-0.9403,-0.9425,-0.9435,-0.9538,-0.9584,-0.9641,-0.9643,-0.9667,-0.9678,-0.9679,-0.969,-0.969,-0.969,-0.9694,-0.9695,-0.9687,-0.9687,-0.9687,-0.9688,0,-0.9038,-0.908,-0.9098,-0.917,-0.9205,-0.924,-0.9301,-0.933,-0.9363,-0.9405,-0.9456,-0.9514,-0.9575,-0.9591,-0.9623,-0.9653,-0.9657,-0.9678,-0.9696,-0.9686,-0.9691,-0.9693,-0.9683,-0.9684,-0.9685,-0.9686,0,0,-0.8994,-0.9096,-0.9101,-0.9135,-0.921,-0.9244,-0.9283,-0.9341,-0.9366,-0.9417,-0.9452,-0.9519,-0.9539,-0.9576,-0.9614,-0.9635,-0.9638,-0.9653,-0.9656,-0.9649,-0.9675,-0.9659,-0.966,-0.9659,-0.966,-0.966,-0.967,0,-0.8995,-0.9065,-0.9115,-0.9166,-0.9207,-0.9257,-0.9291,-0.9341,-0.9382,-0.9423,-0.9469,-0.9515,-0.9537,-0.956,-0.9583,-0.9632,-0.9644,-0.9633,-0.9693,-0.9694,-0.9676,-0.9662,-0.9646,-0.9652,-0.9672,-0.9672,-0.9672,0,-0.9006,-0.9055,-0.911,-0.9182,-0.92,-0.9229,-0.9288,-0.9326,-0.9385,-0.9413,-0.9454,-0.9493,-0.9537,-0.9551,-0.9613,-0.9604,-0.9632,-0.966,-0.9661,-0.9669,-0.9683,-0.967,-0.9655,-0.9656,-0.9676,-0.9676,-0.9675,0,-0.8969,-0.9049,-0.9093,-0.912,-0.9204,-0.9224,-0.926,-0.9319,-0.9351,-0.9402,-0.9424,-0.948,-0.9511,-0.9554,-0.9608,-0.9612,-0.9664,-0.9682,-0.969,-0.9689,-0.9699,-0.9698,-0.9688,-0.9716,-0.9716,-0.9716,-0.9716,0,-0.8966,-0.8997,-0.9077,-0.9104,-0.9141,-0.9199,-0.9235,-0.9275,-0.9327,-0.9364,-0.9412,-0.9445,-0.9514,-0.9556,-0.9598,-0.9644,-0.9657,-0.9682,-0.9693,-0.9678,-0.9675,-0.9697,-0.9698,-0.9716,-0.9716,-0.9716,-0.9716,0,-0.8931,-0.8985,-0.9036,-0.9111,-0.9131,-0.9155,-0.9221,-0.925,-0.9293,-0.9338,-0.9352,-0.9421,-0.9473,-0.953,-0.9602,-0.9631,-0.9674,-0.9689,-0.9654,-0.966,-0.9665,-0.9664,-0.967,-0.9674,-0.9697,-0.9697,-0.9697,0,-0.8925,-0.8951,-0.9029,-0.9056,-0.9091,-0.9134,-0.9167,-0.9225,-0.9258,-0.9327,-0.9348,-0.9403,-0.9451,-0.9532,-0.9589,-0.9644,-0.9662,-0.966,-0.967,-0.9655,-0.9663,-0.9661,-0.9664,-0.9657,-0.9657,-0.9656,-0.9656,0,-0.891,-0.8935,-0.898,-0.9035,-0.9073,-0.9119,-0.9168,-0.9188,-0.9256,-0.9291,-0.9344,-0.9381,-0.9454,-0.9509,-0.9571,-0.961,-0.9645,-0.9652,-0.9657,-0.9642,-0.962,-0.9633,-0.9646,-0.9652,-0.9652,-0.9652,-0.9653,-0.9653,-0.889,-0.8915,-0.8974,-0.9023,-0.9065,-0.9109,-0.914,-0.9187,-0.9232,-0.9295,-0.9327,-0.938,-0.944,-0.9527,-0.9565,-0.9609,-0.962,-0.9626,-0.9628,-0.9629,-0.9625,-0.9613,-0.962,-0.962,-0.9621,-0.9621,-0.9621,0,-0.8877,-0.8917,-0.8962,-0.9028,-0.9066,-0.9095,-0.915,-0.9181,-0.9227,-0.9279,-0.9324,-0.9386,-0.944,-0.9501,-0.9559,-0.9582,-0.9599,-0.9595,-0.9595,-0.9603,-0.9612,-0.9602,-0.958,-0.958,-0.958,-0.958,-0.958,-0.958,-0.8875,-0.8919,-0.8952,-0.9018,-0.9059,-0.9111,-0.914,-0.9182,-0.9223,-0.929,-0.9334,-0.9373,-0.943,-0.9492,-0.9543,-0.956,-0.9579,-0.9571,-0.9592,-0.9599,-0.9602,-0.9606,-0.9597,-0.9574,-0.9574,-0.958,-0.958,-0.958]},{"header":{"parameterUnit":"m.s-1","parameterCategory":1,"la1":30.2991,"la2":30.254,"lo1":-89.0895,"lo2":-89.0444,"dy":0.0017,"dx":0.0017,"nx":28,"ny":28,"refTime":"2025-04-21T21:00:00:Z","depth":0,"parameterNumber":3,"parameterNumberName":"V-component_of_WINDS"},"data":[0,0,0,0,0,0,0,0,0,0,0,0,0,0,0,0,0,0,0,0,0,0,0,0,0,0,0,0,0,0,0,0,0,0,0,0,0,0,0,0,0,0,0,0,0,0,0,0,0,0,0,0,0,0,0,0,0,0,3.8117,3.8117,0,3.8146,3.8146,3.8147,3.8113,3.8112,3.8111,3.811,3.8136,3.8138,3.814,0,0,0,0,0,0,0,0,0,0,0,0,0,3.8028,3.803,3.8117,3.8117,3.8117,3.8146,3.8146,3.8147,3.8113,3.8112,3.811,3.8109,3.8135,3.8137,3.814,0,0,0,0,0,0,0,0,0,0,0,0,0,3.8063,3.803,3.8117,3.8104,3.8103,3.8146,3.8146,3.8147,3.8114,3.8112,3.811,3.8108,3.8135,3.8137,3.814,3.8195,0,0,3.8149,3.815,0,0,0,0,0,0,0,0,3.8061,3.8066,3.8106,3.8105,3.8104,3.8124,3.8125,3.8163,3.8114,3.811,3.811,3.8107,3.8133,3.8136,3.8146,3.8196,3.8197,3.8149,3.815,3.8152,3.8152,0,0,0,0,0,0,0,3.8058,3.8064,3.8128,3.8106,3.8106,3.8096,3.8099,3.8132,3.8131,3.811,3.8108,3.8112,3.8132,3.8143,3.8146,3.8197,3.8149,3.8151,3.8153,3.8154,3.8293,3.8295,0,0,0,0,0,0,3.8058,3.8063,3.8127,3.8129,3.8078,3.8099,3.8102,3.812,3.8131,3.8131,3.8113,3.811,3.8139,3.8143,3.8147,3.821,3.8152,3.8154,3.8156,3.8291,3.8294,3.8296,0,0,0,0,0,0,3.8056,3.8064,3.8126,3.8095,3.8102,3.8103,3.8122,3.8121,3.8132,3.8134,3.8133,3.8124,3.8138,3.8143,3.8183,3.8211,3.8156,3.8158,3.8289,3.8292,3.8295,3.8339,0,0,0,0,0,0,3.8054,3.8064,3.8085,3.8096,3.8104,3.8163,3.8124,3.8123,3.8137,3.8133,3.8144,3.8144,3.8137,3.8179,3.8186,3.8214,3.816,3.8286,3.829,3.8294,3.8335,3.8343,3.835,0,0,0,0,0,3.8051,3.8096,3.8086,3.8094,3.8131,3.8165,3.8169,3.8161,3.8139,3.816,3.8162,3.8143,3.8207,3.8184,3.8191,3.822,3.8284,3.8289,3.8294,3.8332,3.8342,3.835,0,0,0,0,0,0,3.8086,3.8097,3.8087,3.8137,3.815,3.8159,3.8185,3.8172,3.8191,3.8186,3.8175,3.8177,3.822,3.8224,3.8198,3.8273,3.8242,3.8248,3.8269,3.8278,3.8286,3.8283,3.8163,0,0,0,0,0,3.8101,3.8128,3.8135,3.8179,3.8186,3.8185,3.8199,3.8192,3.8205,3.821,3.8214,3.8226,3.8249,3.8264,3.8285,3.8336,3.8337,3.836,3.8368,3.8374,3.8379,3.8405,3.8415,3.8311,3.8311,3.8311,0,0,3.8129,3.8138,3.8156,3.8186,3.8196,3.8223,3.819,3.822,3.824,3.8214,3.8252,3.8256,3.8269,3.8315,3.8335,3.8319,3.8408,3.838,3.8385,3.8386,3.841,3.842,3.8429,3.8314,3.8313,3.8313,0,0,3.8195,3.8205,3.8242,3.8253,3.8269,3.8268,3.8277,3.8288,3.8289,3.8328,3.8309,3.8332,3.8372,3.8382,3.8392,3.8462,3.8445,3.8469,3.8508,3.8534,3.8542,3.8549,3.8573,3.8582,3.8475,3.8475,3.8475,0,3.8228,3.827,3.8263,3.8295,3.8308,3.8288,3.8324,3.8335,3.8356,3.8365,3.8348,3.8397,3.8404,3.8451,3.8469,3.8478,3.8487,3.8467,3.8542,3.8549,3.8555,3.8578,3.8587,3.8478,3.8477,3.8477,3.8477,0,3.8309,3.8338,3.8366,3.8388,3.8405,3.8439,3.8436,3.8453,3.8445,3.8446,3.8485,3.8493,3.8515,3.8526,3.8518,3.8572,3.8562,3.8544,3.8512,3.8568,3.8589,3.8597,3.8481,3.848,3.848,3.8479,0,0,3.8396,3.8415,3.8425,3.8435,3.8451,3.8473,3.8506,3.8529,3.8543,3.8559,3.8585,3.862,3.8603,3.8614,3.8607,3.863,3.8684,3.8609,3.8609,3.8621,3.8742,3.8755,3.8765,3.8674,3.8675,3.8677,3.8741,0,3.8461,3.8519,3.8514,3.8569,3.8595,3.8577,3.8605,3.8617,3.8619,3.864,3.8642,3.8666,3.8643,3.8649,3.8671,3.8673,3.8708,3.8668,3.8696,3.8697,3.8692,3.8776,3.8789,3.8849,3.8749,3.875,3.8751,0,3.8544,3.8564,3.8621,3.8633,3.8644,3.867,3.869,3.8712,3.8725,3.8724,3.8738,3.8727,3.8759,3.8728,3.8771,3.8744,3.8756,3.8758,3.876,3.8761,3.8726,3.8777,3.8868,3.8876,3.8764,3.8763,3.8762,0,3.86,3.8641,3.868,3.869,3.8705,3.8723,3.873,3.8742,3.8756,3.8774,3.8783,3.8804,3.8815,3.8831,3.8825,3.8804,3.8869,3.8838,3.8867,3.8868,3.888,3.8879,3.8972,3.8891,3.8891,3.8891,3.889,0,3.8672,3.8707,3.8706,3.873,3.8769,3.8763,3.8801,3.8805,3.8816,3.884,3.8826,3.8848,3.884,3.8862,3.8858,3.8893,3.8899,3.8898,3.8896,3.8898,3.8898,3.8904,3.8899,3.8893,3.8892,3.8892,3.8892,0,3.874,3.8741,3.8782,3.8794,3.8798,3.8826,3.8835,3.8857,3.8858,3.8889,3.8895,3.8896,3.8921,3.8918,3.8945,3.8942,3.8986,3.898,3.8981,3.8979,3.9009,3.9005,3.9107,3.912,3.9032,3.9033,3.9034,0,3.8784,3.8811,3.8827,3.8842,3.8851,3.8876,3.8891,3.8886,3.8902,3.8919,3.8939,3.8963,3.8981,3.9021,3.9023,3.9044,3.9037,3.9072,3.904,3.9041,3.9036,3.9033,3.9035,3.9077,3.9078,3.9079,3.908,0,3.8863,3.8863,3.8885,3.8908,3.8926,3.8943,3.8959,3.8972,3.8969,3.8987,3.9013,3.9027,3.9056,3.9079,3.9098,3.9104,3.9091,3.909,3.9098,3.9099,3.9098,3.9097,3.8996,3.9087,3.9086,3.9086,3.9085,3.9085,3.892,3.8943,3.8957,3.8983,3.8994,3.9009,3.9031,3.9035,3.9057,3.908,3.9076,3.9105,3.9117,3.9142,3.915,3.9171,3.9159,3.917,3.9173,3.9175,3.9178,3.9097,3.9175,3.9175,3.9175,3.9175,3.9174,0,3.8997,3.9005,3.9029,3.9052,3.9072,3.906,3.9077,3.9093,3.9119,3.9132,3.9151,3.918,3.9203,3.9208,3.9229,3.9245,3.924,3.9251,3.9248,3.925,3.9189,3.9179,3.9255,3.9255,3.9255,3.9255,3.9255,3.9255,3.9039,3.9077,3.9078,3.9121,3.9129,3.9158,3.9168,3.9182,3.9192,3.9226,3.9245,3.9249,3.9258,3.928,3.93,3.9301,3.9308,3.9322,3.932,3.9262,3.9254,3.9246,3.9237,3.9324,3.9324,3.9378,3.9379,3.9379]}]]